This is the latest recevied weather packets stored in our database for station/object HK4DAP-11. If no packets are shown the sender has not sent any weather packets the latest 10 day(s).
| Time | Temp. | Humidity | Pressure | Rain* | Wind** | Luminosity | Snow |
|---|---|---|---|---|---|---|---|
| 1787804151 | 26.67° C | 70% | 849.9 hPa | - | - | - | - |
| 1787803851 | 27.22° C | 70% | 850 hPa | - | - | - | - |
| 1787803552 | 27.22° C | 71% | 850 hPa | - | - | - | - |
| 1787803251 | 27.22° C | 73% | 850 hPa | - | - | - | - |
| 1787802951 | 27.22° C | 75% | 850 hPa | - | - | - | - |
| 1787802663 | 27.22° C | 75% | 850.1 hPa | - | - | - | - |
| 1787802351 | 27.22° C | 75% | 850.2 hPa | - | - | - | - |
| 1787802051 | 27.22° C | 76% | 850.3 hPa | - | - | - | - |
| 1787801750 | 27.22° C | 76% | 850.2 hPa | - | - | - | - |
| 1787801450 | 27.22° C | 76% | 849.9 hPa | - | - | - | - |
| 1787801155 | 27.22° C | 75% | 850.3 hPa | - | - | - | - |
| 1787800850 | 27.78° C | 74% | 850.3 hPa | - | - | - | - |
| 1787800550 | 27.78° C | 75% | 850.3 hPa | - | - | - | - |
| 1787800257 | 27.78° C | 73% | 850.4 hPa | - | - | - | - |
| 1787799949 | 27.78° C | 70% | 850.5 hPa | - | - | - | - |
| 1787799649 | 27.78° C | 69% | 850.5 hPa | - | - | - | - |
| 1787799349 | 27.22° C | 69% | 850.4 hPa | - | - | - | - |
| 1787799049 | 27.22° C | 70% | 850.3 hPa | - | - | - | - |
| 1787798749 | 27.22° C | 70% | 850.2 hPa | - | - | - | - |
| 1787798449 | 26.67° C | 71% | 850.2 hPa | - | - | - | - |
| 1787798149 | 27.22° C | 71% | 850.2 hPa | - | - | - | - |
| 1787797849 | 26.67° C | 71% | 850.2 hPa | - | - | - | - |
| 1787797548 | 26.67° C | 71% | 850.1 hPa | - | - | - | - |
| 1787797248 | 26.67° C | 72% | 850 hPa | - | - | - | - |
| 1787796949 | 26.67° C | 73% | 850 hPa | - | - | - | - |
* Rain since midnight (hover to see other rain measurements)
** Current wind speed in m/s (hover to see current wind gust speed)